Flag for France Weather past 2 weeks in Douai, France

Now
52 °F

Light rain. Fog.


Feels Like: 51 °F
Forecast: 47 / 62 °F
Wind: 5 mph from South

Location: Lille Airport

Current Time: Apr 25, 2015 at 5:06:59 AM

Latest Report: Apr 25, 2015 at 4:30 AM


Visibility: 2 mi

Pressure: 29.77 "Hg

Humidity: 94%

Dew point: 50 °F

Location of DouaiLocation

Historic Weather in Douai — Graph

°F

Douai temperature yesterday

Maximum temperature yesterday: 72 °F (at 2:00 PM)
Minimum temperature yesterday: 41 °F (at 6:00 AM)
Average temperature yesterday: 57 °F

Past Weeks' High & Low Weather Summary

 TemperatureHumidityPressure
High79 °F (Apr 15, 4:30 PM)100% (Apr 10, 6:30 AM)30.51 "Hg (Apr 10, 6:30 AM)
Low37 °F (Apr 12, 6:30 AM)23% (Apr 15, 5:30 PM)29.80 "Hg (Apr 25, 2:30 AM)
Average54 °F65%30.19 "Hg
* Reported Apr 10 4:00 AM — Apr 25 4:00 AM, Douai, Weather by CustomWeather, © 2015

Note: Actual official high and low records may vary slightly from our data, if they occured in-between our weather recording intervals... More about our weather records

Advertising

Douai weather history for previous 24 hours

 ConditionsComfort  
Time TempWeatherWind HumidityBarometerVisibility
4:00 AM
Sat, Apr 25
52 °FFog.5 mph94%29.80 "Hg2 mi
3:30 AM52 °FLight rain. Fog.3 mph94%29.80 "Hg3 mi
3:00 AM54 °FLight rain. Clear.5 mph82%29.80 "Hg5 mi
2:30 AM54 °FLight rain. Clear.2 mph82%29.80 "HgN/A
2:00 AM54 °FClear.3 mph77%29.83 "Hg10 mi
1:30 AM54 °FClear.3 mph77%29.83 "Hg10 mi
1:00 AM54 °FPassing clouds.5 mph77%29.83 "HgN/A
12:30 AM54 °FPassing clouds.3 mph77%29.83 "HgN/A
12:00 AM55 °FPassing clouds.5 mph72%29.83 "HgN/A
11:30 PM
Fri, Apr 24
54 °FClear.3 mph77%29.83 "Hg10 mi
11:00 PM54 °FClear.7 mph77%29.86 "Hg10 mi
10:30 PM55 °FClear.6 mph72%29.86 "Hg10 mi
10:00 PM55 °FPassing clouds.7 mph72%29.86 "HgN/A
9:30 PM55 °FSunny.6 mph72%29.86 "Hg10 mi
9:00 PM55 °FSunny.7 mph77%29.86 "Hg10 mi
8:30 PM57 °FSunny.12 mph72%29.86 "Hg10 mi
8:00 PM57 °FSunny.12 mph72%29.86 "Hg10 mi
7:30 PM61 °FSunny.15 mph63%29.86 "Hg10 mi
7:00 PM61 °FSunny.15 mph68%29.86 "Hg10 mi
6:30 PM64 °FSunny.15 mph60%29.86 "Hg10 mi
6:00 PM64 °FPassing clouds.12 mph60%29.86 "HgN/A
5:30 PM66 °FSunny.14 mph56%29.86 "Hg10 mi
5:00 PM68 °FSunny.13 mph49%29.86 "Hg10 mi
4:30 PM68 °FPassing clouds.14 mph46%29.86 "HgN/A
4:00 PM70 °FSunny.14 mph43%29.86 "Hg10 mi
3:30 PM72 °FSunny.16 mph44%29.86 "Hg10 mi
3:00 PM72 °FPassing clouds.12 mph38%29.86 "HgN/A
2:30 PM72 °FPassing clouds.12 mph33%29.86 "HgN/A
2:00 PM72 °FPassing clouds.10 mph36%29.89 "HgN/A
1:30 PM70 °FPassing clouds.10 mph35%29.89 "HgN/A
1:00 PM70 °FPassing clouds.8 mph35%29.89 "HgN/A
12:30 PM68 °FPassing clouds.6 mph38%29.89 "HgN/A
12:00 PM66 °FPassing clouds.7 mph40%29.92 "HgN/A
11:30 AM64 °FPassing clouds.7 mph46%29.92 "HgN/A
11:00 AM63 °FPassing clouds.8 mph49%29.92 "HgN/A
10:30 AM61 °FSunny.7 mph52%29.92 "Hg10 mi
10:00 AM59 °FClear.7 mph55%29.92 "Hg5 mi
9:30 AM55 °FClear.9 mph67%29.92 "Hg4 mi
9:00 AM52 °FFog.3 mph77%29.92 "Hg2 mi
8:00 AM45 °FFog.2 mph93%29.95 "Hg1 mi
7:30 AM43 °FFog.1 mph93%29.95 "Hg1 mi
7:00 AM41 °FFog.No wind100%29.92 "Hg1 mi
6:30 AM41 °FFog.1 mph93%29.92 "Hg1 mi
6:00 AM41 °FFog.No wind100%29.95 "Hg2 mi
5:00 AM43 °FFog.No wind93%29.95 "Hg2 mi
Weather by CustomWeather, © 2015

See weather overviewHow to use our weather pages